Temperature
12 12 12 12 12 12 12 12 11 11 11 11 11 11 11 11 11 11 11 11 11 11 11 11 11 11 11 11 11 11 12 12 11 11 11 11 11 11 11 11 11 10 10
12 12 12 12 12 11 11 11 11 11 11 11 11 11 11 10 10 10 10 10 11 11 11 10 10 10 11 11 11 11 11 11 11 11 11 11 11 11 11 10 10 10 10
12 11 11 11 11 11 11 11 11 11 11 11 10 10 10 10 10 10 10 10 10 10 10 10 10 10 10 10 10 10 11 11 11 11 11 11 11 10 10 10 10 10 10
11 11 11 11 11 11 11 11 11 11 10 10 10 10 10 10 10 10 10 10 10 10 10 10 10 10 10 10 10 10 10 10 10 10 10 10 10 10 10 9 9 9 10
11 11 11 11 11 11 10 10 10 10 10 10 10 9 9 9 9 9 9 9 10 10 10 10 10 10 10 10 10 10 10 10 10 10 10 10 9 9 9 9 9 9 9
11 10 11 11 10 10 10 10 10 10 10 9 9 9 9 9 9 9 9 9 9 9 9 9 9 9 9 9 9 9 9 9 9 9 9 9 9 9 9 9 9 9 9
10 10 10 10 10 10 10 10 10 9 9 9 9 8 8 8 8 8 8 8 9 9 9 9 9 9 9 9 9 9 9 9 9 9 9 9 8 8 8 8 8 8 8
10 10 10 10 10 10 9 9 9 9 9 9 8 7 7 7 7 8 8 8 8 8 8 8 8 8 8 8 8 8 8 8 9 9 8 8 8 8 8 8 8 8 8
9 9 9 9 9 9 9 9 9 9 9 8 8 8 7 8 7 7 7 8 8 8 8 8 8 8 8 8 8 8 8 8 8 8 8 8 8 7 7 7 7 7 7
9 9 9 9 9 9 9 9 9 9 8 8 8 8 8 8 7 6 7 7 7 7 7 7 7 7 7 7 7 7 8 8 8 8 7 7 7 7 7 7 7 7 7
8 9 9 9 9 8 8 8 8 8 8 8 8 7 7 7 8 7 6 7 7 7 7 7 7 7 7 7 7 7 7 7 7 7 7 7 7 7 7 6 7 7 7
8 8 8 8 8 8 8 8 8 8 8 7 7 7 7 7 7 7 7 7 7 7 7 7 7 7 7 7 7 7 7 7 7 7 7 6 7 7 7 6 6 6 6
8 8 8 8 8 8 8 8 7 7 7 7 7 7 7 7 7 7 7 7 6 6 6 6 6 6 6 6 6 6 6 6 6 6 6 6 6 6 6 6 6 6 6
7 7 7 7 7 7 7 7 7 7 7 7 7 7 7 7 7 7 7 7 6 6 6 6 6 6 6 6 6 6 6 6 6 6 6 6 6 6 6 6 6 6 6
7 7 7 7 7 7 7 7 7 6 6 6 6 6 6 6 6 6 6 6 6 5 5 6 6 6 6 6 6 5 5 5 5 5 6 6 6 6 6 6 6 6 5
7 7 7 7 6 6 6 6 6 6 6 6 6 6 6 6 6 6 6 6 6 5 5 5 5 6 5 5 5 5 5 5 5 5 5 5 5 5 5 5 5 5 5
6 6 6 6 6 6 5 5 5 5 5 6 6 5 5 5 5 5 5 5 5 5 5 5 5 5 5 5 5 5 4 4 4 5 5 5 5 5 5 5 5 5 5
6 6 6 6 5 5 5 5 5 5 5 5 5 5 5 5 5 5 5 5 5 5 4 4 4 5 5 5 4 4 4 4 4 4 4 4 4 4 4 4 4 4 4
6 5 5 5 5 5 5 5 5 5 5 5 5 5 5 4 4 4 4 4 4 4 4 4 4 4 4 4 4 4 4 3 4 4 4 4 4 4 4 4 4 4 4
5 5 5 5 4 4 4 4 4 4 4 4 4 4 4 4 4 4 4 4 4 4 4 4 4 4 4 3 3 3 3 3 3 3 3 3 3 3 4 4 4 4 3
5 5 4 4 4 4 4 4 4 4 4 4 4 4 4 4 4 4 4 4 4 4 3 3 3 3 3 3 3 3 3 3 3 2 3 3 3 3 3 3 3 3 3
4 4 4 4 4 4 4 4 4 4 4 4 4 4 4 4 4 3 3 3 3 3 3 3 3 3 3 3 2 2 2 2 2 2 2 2 2 2 2 2 2 2 2
4 4 4 4 4 4 4 4 4 3 3 3 3 3 3 3 3 3 3 3 3 3 3 3 2 2 2 2 2 2 2 2 2 2 1 2 2 2 2 2 2 1 1
3 4 4 4 4 3 3 3 3 3 3 3 3 3 3 3 3 3 2 2 2 2 2 2 2 2 2 2 2 1 1 1 1 1 1 1 1 1 1 1 1 1 1
3 3 3 3 3 3 3 3 3 3 3 2 2 2 2 2 3 2 2 2 2 2 2 2 1 1 1 1 1 1 1 1 0 1 0 0 0 0 1 1 0 0 0
2 2 2 3 3 3 3 3 3 2 2 2 2 2 2 2 2 2 1 1 1 1 1 1 1 1 1 1 0 0 0 0 -0 -0 -0 -0 -0 -1 -1 -0 -0 -0 -1
Wind_Speed
6 5 5 5 6 5 5 5 5 5 5 5 5 5 5 5 4 4 5 5 4 4 5 5 4 5 5 5 4 5 5 5 5 5 6 5 5 5 4 4 5 5 5
6 5 5 5 5 5 5 5 5 5 4 4 4 4 4 5 4 4 4 5 5 5 5 5 4 4 4 4 4 3 4 4 5 5 5 5 4 4 4 4 4 4 4
7 6 5 5 5 6 6 5 5 4 4 4 4 3 3 4 4 4 4 4 5 6 5 5 4 4 4 3 3 3 3 3 4 4 4 4 3 3 3 2 2 3 3
8 7 5 5 6 6 6 5 5 4 4 4 3 3 2 2 3 4 3 3 4 4 5 6 5 4 3 2 2 2 2 2 4 4 4 3 2 2 2 2 2 2 3
9 7 6 5 7 5 5 5 5 5 5 4 3 2 2 2 2 3 3 3 3 3 4 5 5 4 2 1 0 1 1 1 3 3 3 2 2 2 1 1 1 2 2
9 7 5 7 7 6 5 5 6 5 5 5 4 2 1 1 2 2 2 3 3 3 3 4 4 4 3 1 0 1 1 1 1 2 2 1 2 2 1 1 1 2 3
9 7 5 6 7 6 7 7 6 6 5 5 4 2 1 1 1 2 2 2 2 2 2 3 3 3 3 2 1 1 2 2 2 2 2 2 1 2 2 2 2 3 3
9 8 7 6 7 7 8 8 7 6 5 5 4 3 3 3 2 2 2 2 2 2 2 2 2 2 2 2 1 1 2 3 3 3 3 3 3 3 3 3 4 4 4
9 9 8 7 7 7 7 9 9 9 7 6 5 3 3 4 3 3 4 3 3 3 3 2 2 2 2 2 2 2 2 3 5 5 4 4 4 5 5 5 5 5 6
9 9 9 8 8 7 8 8 9 8 8 7 5 3 2 1 3 3 3 4 4 4 4 3 3 3 2 2 1 2 2 3 5 5 5 5 6 6 6 6 6 7 7
8 8 8 8 8 7 8 9 9 8 8 8 6 4 3 1 2 3 3 4 4 4 5 5 4 4 4 3 3 2 3 4 5 6 6 7 7 7 7 8 8 8 7
6 8 8 8 8 7 8 9 9 10 8 8 7 6 5 4 4 3 3 4 4 4 5 5 5 5 4 4 3 2 4 4 6 6 7 7 8 8 8 9 8 8 8
7 8 8 8 8 8 8 8 8 9 9 9 8 7 6 5 3 3 3 2 3 3 4 5 6 6 5 5 4 4 5 4 6 7 8 8 7 8 8 8 9 9 9
7 8 9 8 8 8 8 8 7 8 8 8 8 8 6 5 4 4 3 3 2 3 4 5 4 6 6 5 5 6 5 5 6 6 8 8 7 7 8 8 9 9 10
7 9 9 9 9 8 9 9 7 9 8 8 8 8 6 5 5 4 4 4 4 4 5 5 4 5 5 5 5 6 6 6 7 7 7 7 7 8 8 9 10 10 10
8 9 9 9 9 8 9 9 8 8 9 8 7 8 7 5 5 5 4 4 4 5 4 3 3 3 5 5 6 6 6 6 7 8 8 9 9 9 9 10 10 11 11
8 9 9 9 9 10 9 9 9 9 10 9 8 8 8 7 6 5 5 5 5 4 4 3 2 3 5 5 5 6 6 6 6 8 9 10 10 10 10 11 11 12 12
8 8 9 9 9 10 10 10 10 10 10 10 9 9 9 7 7 6 5 6 5 5 4 5 3 4 5 5 5 5 5 6 6 7 9 10 10 11 11 11 12 12 12
8 8 9 9 10 10 10 10 10 10 10 10 10 10 9 9 8 7 7 6 5 4 4 4 4 3 3 4 4 4 5 5 6 7 8 9 9 10 11 12 12 12 12
8 8 8 9 9 10 10 10 10 10 10 10 10 9 9 9 9 8 7 8 6 5 5 4 4 3 3 3 4 4 4 4 4 5 7 7 9 10 10 10 11 11 11
7 7 8 8 8 8 9 10 10 10 10 10 9 9 9 9 9 9 7 8 7 6 5 5 4 4 3 3 5 4 5 4 5 4 5 6 6 7 8 9 9 10 11
6 7 8 8 8 7 8 10 10 9 10 10 9 9 8 9 9 9 9 9 9 8 7 6 5 6 6 5 4 4 4 4 5 3 5 6 5 6 6 7 8 9 10
6 6 7 8 8 8 9 10 10 9 9 9 9 8 6 7 8 8 8 9 9 9 9 8 8 8 7 6 5 6 6 6 5 3 4 6 5 6 7 7 9 10 11
5 5 6 7 7 7 8 9 10 9 9 9 9 9 8 8 8 8 7 7 8 8 8 7 7 7 6 6 6 6 6 5 5 4 4 5 5 6 6 8 9 10 11
4 4 4 5 6 6 7 8 8 7 7 8 8 8 9 8 8 9 8 7 7 6 5 7 6 6 5 6 5 3 3 3 4 4 3 4 4 5 6 6 7 9 11
3 3 4 4 5 5 6 8 8 6 6 6 6 7 8 8 9 9 8 8 7 6 4 3 3 4 4 6 7 6 5 4 3 3 3 3 3 3 4 4 4 6 8
Wind_Direction
174 171 168 168 169 166 166 166 166 162 160 157 155 156 153 149 140 131 117 99 109 121 126 123 121 127 132 129 117 115 120 116 110 108 105 104 95 84 80 73 72 65 59
172 170 168 169 169 169 169 171 167 163 159 155 152 153 153 149 145 143 135 119 108 111 116 115 108 116 135 134 134 123 124 121 119 120 117 110 102 93 87 78 73 66 57
176 174 171 171 173 171 166 165 161 162 156 151 147 144 145 150 147 147 143 134 125 107 109 114 110 102 112 126 126 120 118 137 128 128 127 120 111 101 94 83 74 61 48
181 179 175 174 172 170 168 166 164 163 158 156 148 142 140 140 152 148 143 141 141 138 112 103 108 109 104 98 96 97 74 125 126 123 125 120 112 106 99 86 66 42 29
185 184 180 174 172 170 172 173 172 170 164 153 143 140 143 158 157 155 151 142 141 149 145 121 114 108 107 92 43 34 38 74 131 135 136 139 132 120 110 94 30 0 354
187 188 182 177 174 175 175 177 175 174 168 155 137 121 117 161 173 177 171 157 150 155 157 154 149 133 132 147 210 290 315 318 157 148 151 175 190 188 193 223 288 315 326
190 189 184 180 183 184 182 179 171 167 165 153 142 137 130 181 212 204 196 187 176 172 166 171 173 175 160 150 170 258 292 293 261 204 198 198 220 242 247 252 273 293 306
191 192 188 186 188 187 184 182 173 172 174 180 181 173 187 205 216 222 226 220 200 177 175 181 178 183 194 194 173 209 280 292 289 244 226 228 242 255 263 273 277 283 296
195 194 193 190 193 190 189 190 186 182 181 193 198 195 196 209 199 208 220 215 206 196 191 180 186 191 199 201 206 207 265 287 282 258 248 246 251 259 260 266 277 283 288
202 197 196 195 197 197 194 195 194 193 187 191 202 231 259 209 200 196 209 218 221 218 210 199 200 201 200 206 228 268 278 290 280 265 257 256 257 260 261 268 274 279 281
207 203 200 198 200 202 200 198 196 197 199 198 198 203 207 219 227 222 216 212 219 226 224 218 211 209 208 214 226 259 269 287 289 274 269 263 264 266 270 272 272 276 282
206 207 203 201 201 203 203 203 199 199 203 205 204 207 207 208 216 224 229 213 220 220 223 221 220 214 214 221 227 250 261 278 291 284 277 273 271 270 276 276 274 277 280
208 208 204 203 203 204 205 205 204 204 206 207 207 212 216 220 215 220 212 214 231 231 226 221 219 216 216 220 221 233 243 265 285 288 284 278 281 279 280 277 275 275 276
212 209 205 206 206 203 204 205 206 208 208 211 213 213 214 214 208 212 210 202 220 237 229 223 216 216 214 217 225 230 240 253 273 283 288 279 284 285 281 279 277 278 277
211 209 206 205 207 206 206 205 209 209 208 210 212 213 214 212 209 217 215 214 219 234 235 221 215 215 213 219 217 229 243 249 261 272 285 279 279 281 279 276 275 276 278
208 206 206 204 205 207 208 208 210 210 209 211 209 210 215 213 210 212 212 221 231 238 241 227 225 220 213 221 220 231 242 249 251 260 274 276 271 272 271 272 273 273 275
204 208 207 204 205 206 207 208 209 208 210 211 210 211 213 212 210 212 213 217 224 229 239 246 234 220 219 222 224 236 242 246 251 255 265 271 265 264 266 270 271 273 274
204 206 206 206 208 208 208 208 208 209 210 211 211 211 213 209 212 212 213 217 222 225 233 241 233 227 232 226 230 238 241 246 254 258 260 267 264 263 264 266 269 272 271
204 204 204 207 209 210 210 211 212 212 214 214 212 211 210 207 211 213 215 219 222 225 233 233 234 231 239 229 238 244 247 251 257 260 256 261 265 266 265 263 264 267 268
203 204 207 210 213 212 211 211 212 213 215 215 214 213 211 211 213 212 215 218 216 217 223 223 231 236 235 234 236 243 252 254 260 262 254 260 266 267 265 263 262 262 265
203 204 207 211 215 214 213 211 211 214 214 213 214 215 215 216 220 216 216 215 211 213 216 220 226 238 232 232 237 239 246 258 266 253 261 265 269 262 260 261 261 262 266
200 200 205 208 212 215 208 207 209 211 212 211 213 215 215 214 216 218 220 218 215 213 214 221 229 230 235 240 239 239 242 253 264 245 265 273 269 270 264 264 267 271 271
202 203 205 205 210 212 201 201 205 210 212 214 213 212 212 215 212 218 217 217 222 225 223 225 230 234 235 232 231 237 238 250 262 262 261 269 271 273 274 272 268 268 272
205 206 206 207 211 209 200 201 200 210 214 215 215 214 213 211 211 213 215 220 225 226 228 230 234 237 239 232 229 238 247 259 278 266 242 256 270 276 279 275 265 262 268
205 208 208 207 209 209 199 197 197 210 215 219 219 217 215 214 210 207 210 216 224 231 234 234 241 243 237 227 225 233 229 241 266 266 242 245 266 285 283 272 264 266 271
201 201 204 211 213 214 199 197 198 207 212 216 218 219 217 216 211 205 211 213 219 224 217 214 228 233 230 217 214 225 224 234 258 259 228 237 263 282 279 268 271 275 274
Height
1529 1531 1532 1533 1535 1536 1537 1538 1539 1540 1541 1542 1543 1544 1545 1546 1547 1548 1548 1548 1549 1549 1550 1550 1550 1551 1551 1551 1551 1552 1552 1552 1552 1553 1552 1552 1552 1552 1552 1552 1552 1551 1551
1527 1528 1529 1531 1533 1534 1536 1537 1538 1539 1540 1541 1542 1543 1544 1545 1546 1546 1547 1547 1548 1548 1549 1549 1549 1550 1550 1550 1550 1550 1551 1551 1551 1551 1552 1551 1552 1551 1551 1551 1551 1551 1550
1524 1526 1527 1529 1531 1532 1534 1535 1536 1537 1538 1539 1540 1542 1543 1544 1544 1545 1546 1546 1546 1547 1547 1548 1548 1548 1549 1549 1549 1549 1550 1550 1550 1550 1550 1550 1550 1550 1550 1550 1550 1550 1549
1522 1523 1525 1526 1528 1530 1531 1533 1534 1535 1536 1538 1539 1540 1541 1542 1543 1544 1544 1545 1545 1545 1546 1546 1547 1547 1547 1548 1548 1548 1548 1548 1548 1549 1549 1549 1549 1549 1549 1549 1549 1549 1548
1519 1520 1522 1524 1526 1528 1529 1531 1532 1533 1534 1535 1537 1538 1539 1540 1541 1542 1542 1543 1543 1544 1544 1544 1545 1545 1545 1546 1546 1546 1546 1546 1547 1547 1547 1547 1548 1548 1548 1548 1547 1547 1547
1515 1517 1519 1521 1523 1524 1526 1528 1529 1531 1532 1533 1534 1536 1537 1538 1539 1539 1540 1541 1541 1542 1542 1543 1543 1543 1543 1544 1544 1544 1544 1544 1544 1545 1545 1545 1546 1546 1546 1546 1546 1545 1545
1512 1514 1515 1517 1519 1521 1522 1524 1526 1528 1529 1530 1532 1534 1535 1536 1536 1537 1538 1538 1539 1539 1540 1541 1541 1541 1541 1542 1542 1542 1542 1542 1542 1542 1543 1543 1543 1544 1544 1544 1543 1543 1543
1508 1510 1511 1513 1515 1517 1519 1521 1522 1524 1525 1527 1529 1531 1533 1535 1534 1534 1535 1535 1536 1537 1537 1538 1538 1539 1539 1539 1539 1539 1540 1540 1540 1540 1540 1541 1541 1541 1541 1541 1541 1541 1540
1503 1505 1507 1509 1512 1513 1515 1517 1519 1520 1522 1524 1526 1528 1530 1530 1531 1531 1531 1532 1533 1534 1534 1535 1535 1536 1536 1536 1537 1537 1537 1537 1537 1537 1538 1538 1538 1539 1539 1538 1538 1538 1537
1499 1501 1503 1505 1508 1510 1511 1513 1515 1516 1518 1519 1522 1524 1526 1526 1527 1527 1528 1529 1530 1530 1531 1532 1532 1533 1533 1533 1534 1534 1535 1534 1534 1534 1535 1535 1536 1536 1536 1535 1535 1534 1534
1495 1497 1499 1501 1503 1505 1507 1509 1511 1513 1514 1516 1517 1519 1521 1522 1523 1524 1524 1525 1526 1527 1527 1528 1529 1529 1530 1530 1531 1531 1532 1531 1532 1531 1531 1532 1532 1532 1532 1531 1531 1531 1530
1490 1493 1495 1496 1499 1501 1503 1505 1506 1508 1510 1512 1514 1515 1517 1518 1519 1521 1521 1521 1522 1523 1524 1524 1525 1526 1526 1527 1527 1528 1528 1528 1528 1528 1528 1528 1528 1528 1528 1527 1527 1526 1526
1486 1488 1490 1492 1494 1496 1498 1500 1502 1504 1506 1507 1509 1511 1513 1515 1516 1518 1518 1518 1519 1519 1520 1521 1521 1522 1523 1523 1523 1524 1524 1524 1525 1524 1524 1524 1524 1524 1523 1523 1522 1522 1521
1481 1483 1485 1487 1489 1492 1494 1496 1498 1500 1501 1503 1505 1507 1509 1510 1512 1514 1515 1516 1516 1516 1516 1517 1518 1518 1519 1519 1520 1520 1520 1520 1520 1520 1520 1520 1519 1519 1519 1518 1517 1517 1516
1476 1479 1480 1482 1485 1487 1489 1491 1493 1495 1497 1499 1501 1502 1504 1506 1508 1509 1511 1513 1514 1513 1513 1513 1514 1514 1515 1515 1516 1516 1516 1516 1516 1516 1515 1515 1515 1514 1514 1513 1513 1512 1511
1472 1473 1475 1477 1480 1482 1484 1486 1488 1490 1492 1494 1496 1498 1500 1501 1503 1505 1506 1508 1509 1510 1509 1509 1509 1510 1511 1511 1512 1512 1512 1512 1511 1511 1511 1510 1510 1509 1509 1508 1508 1507 1506
1467 1469 1471 1472 1475 1477 1480 1481 1483 1485 1487 1489 1491 1493 1495 1497 1498 1500 1501 1503 1504 1506 1505 1505 1505 1506 1507 1507 1507 1508 1507 1507 1507 1506 1506 1505 1505 1504 1504 1503 1502 1502 1501
1462 1464 1466 1468 1470 1472 1474 1476 1478 1480 1482 1484 1486 1488 1490 1492 1493 1495 1496 1498 1499 1500 1501 1500 1501 1501 1502 1503 1503 1503 1503 1503 1502 1501 1501 1500 1499 1499 1498 1497 1497 1496 1495
1457 1459 1461 1463 1465 1467 1469 1471 1473 1475 1477 1479 1481 1483 1485 1487 1488 1490 1492 1493 1494 1495 1496 1496 1495 1496 1497 1498 1498 1498 1498 1497 1497 1497 1496 1495 1494 1493 1492 1491 1491 1490 1490
1453 1455 1457 1459 1461 1463 1465 1467 1468 1470 1472 1475 1476 1478 1480 1482 1484 1485 1487 1489 1490 1490 1491 1491 1491 1492 1492 1493 1493 1493 1492 1492 1492 1492 1491 1490 1489 1487 1486 1485 1485 1484 1483
1448 1450 1453 1454 1456 1458 1460 1461 1463 1465 1468 1470 1472 1474 1475 1477 1479 1480 1482 1484 1485 1485 1486 1486 1486 1487 1487 1488 1488 1488 1488 1488 1487 1487 1486 1485 1483 1482 1481 1479 1479 1478 1477
1444 1446 1448 1450 1451 1453 1455 1457 1459 1461 1463 1465 1467 1468 1470 1472 1474 1475 1477 1479 1480 1481 1481 1481 1481 1482 1482 1483 1484 1484 1483 1483 1482 1482 1481 1480 1479 1477 1476 1474 1473 1472 1471
1440 1442 1443 1445 1447 1449 1450 1452 1454 1456 1458 1460 1462 1464 1465 1467 1469 1470 1472 1473 1475 1476 1477 1477 1477 1477 1478 1478 1479 1479 1478 1478 1477 1477 1476 1474 1473 1472 1471 1469 1468 1467 1466
1436 1437 1439 1441 1442 1444 1446 1448 1450 1452 1454 1455 1457 1459 1460 1461 1463 1465 1467 1468 1469 1470 1471 1472 1473 1473 1474 1474 1474 1474 1473 1472 1472 1471 1470 1468 1467 1466 1465 1463 1462 1461 1460
1433 1434 1435 1436 1438 1440 1442 1443 1445 1447 1449 1450 1452 1454 1455 1457 1459 1461 1462 1463 1464 1465 1466 1467 1467 1468 1468 1468 1469 1469 1468 1467 1465 1465 1465 1464 1462 1461 1459 1458 1457 1456 1454
1429 1430 1431 1432 1434 1435 1437 1439 1441 1443 1444 1446 1447 1449 1451 1452 1454 1455 1457 1458 1459 1459 1461 1462 1462 1463 1463 1463 1464 1464 1463 1462 1461 1460 1459 1459 1457 1456 1453 1451 1451 1450 1448